When you browse on this site, cookies collect data to enhance your experience and personalize the content and advertising you see.
Visit our Privacy Policy to learn more. By continuing to use the site, you agree to this use of cookies and data.
  • In Spain
  • List of Countries
  • For 7 days
  • Water Temperature
  • Satellite Maps
  • Weather Map
  • Weather Widgets
  • user-avatar
    Login

    Hourly Weather Tebriz

    Today, 18 November, Sunday

    Time Temperature Precipitation Wind Pressure Humidity
    00:00 +8°C° 0 mm 1 mps 647 mmHg 62%
    01:00 +8°C° 0 mm 1 mps 646 mmHg 63%
    02:00 +7°C° 0 mm 1 mps 646 mmHg 65%
    03:00 +7°C° 0 mm 1 mps 646 mmHg 66%
    04:00 +6°C° 0 mm 1 mps 646 mmHg 68%
    05:00 +6°C° 0 mm 1 mps 645 mmHg 70%
    06:00 +6°C° 0 mm 1 mps 645 mmHg 72%
    07:00 +7°C° 0 mm 1 mps 646 mmHg 68%
    08:00 +8°C° 0 mm 1 mps 646 mmHg 63%
    09:00 +10°C° 0 mm 1 mps 646 mmHg 58%
    10:00 +10°C° 0 mm 1 mps 646 mmHg 55%
    11:00 +11°C° 0 mm 1 mps 646 mmHg 53%
    12:00 +12°C° 0 mm 2 mps 646 mmHg 50%
    13:00 +12°C° 0 mm 2 mps 646 mmHg 48%
    14:00 +12°C° 0 mm 2 mps 646 mmHg 47%
    15:00 +12°C° 0 mm 2 mps 645 mmHg 46%
    16:00 +10°C° 0 mm 2 mps 645 mmHg 49%
    17:00 +9°C° 0 mm 2 mps 645 mmHg 51%
    18:00 +9°C° 0 mm 1 mps 645 mmHg 54%
    19:00 +9°C° 0 mm 1 mps 645 mmHg 55%
    20:00 +8°C° 0 mm 1 mps 645 mmHg 57%
    21:00 +8°C° 0 mm 1 mps 645 mmHg 58%
    22:00 +7°C° 0 mm 1 mps 645 mmHg 59%
    23:00 +7°C° 0 mm 1 mps 645 mmHg 59%

    Tomorrow, 19 November, Monday

    Time Temperature Precipitation Wind Pressure Humidity
    00:00 +6°C° 0 mm 1 mps 645 mmHg 60%
    01:00 +6°C° 0 mm 1 mps 645 mmHg 61%
    02:00 +6°C° 0 mm 1 mps 644 mmHg 61%
    03:00 +4°C° 0 mm 0 mps 644 mmHg 62%
    04:00 +4°C° 0 mm 0 mps 644 mmHg 63%
    05:00 +4°C° 0 mm 0 mps 644 mmHg 63%
    06:00 +4°C° 0 mm 0 mps 644 mmHg 64%
    07:00 +5°C° 0 mm 0 mps 645 mmHg 57%
    08:00 +7°C° 0 mm 0 mps 646 mmHg 51%
    09:00 +9°C° 0 mm 0 mps 647 mmHg 44%
    10:00 +10°C° 0 mm 1 mps 647 mmHg 42%
    11:00 +11°C° 0 mm 1 mps 647 mmHg 39%
    12:00 +12°C° 0 mm 1 mps 647 mmHg 36%
    13:00 +12°C° 0 mm 1 mps 647 mmHg 35%
    14:00 +13°C° 0 mm 1 mps 646 mmHg 35%
    15:00 +13°C° 0 mm 1 mps 646 mmHg 34%
    16:00 +12°C° 0 mm 1 mps 646 mmHg 38%
    17:00 +11°C° 0 mm 1 mps 646 mmHg 43%
    18:00 +9°C° 0 mm 1 mps 646 mmHg 47%
    19:00 +8°C° 0 mm 0 mps 646 mmHg 49%
    20:00 +7°C° 0 mm 0 mps 646 mmHg 51%
    21:00 +7°C° 0 mm 0 mps 646 mmHg 53%
    22:00 +6°C° 0 mm 0 mps 645 mmHg 54%
    23:00 +6°C° 0 mm 0 mps 645 mmHg 55%

    Day after tomorrow, 20 November, Tuesday

    Time Temperature Precipitation Wind Pressure Humidity
    00:00 +6°C° 0 mm 0 mps 645 mmHg 56%
    01:00 +6°C° 0 mm 0 mps 645 mmHg 56%
    02:00 +5°C° 0 mm 0 mps 645 mmHg 56%
    03:00 +5°C° 0 mm 0 mps 645 mmHg 56%
    04:00 +6°C° 0 mm 1 mps 645 mmHg 56%
    05:00 +6°C° 0 mm 1 mps 645 mmHg 56%
    06:00 +6°C° 0 mm 1 mps 645 mmHg 55%
    07:00 +7°C° 0 mm 1 mps 645 mmHg 50%
    08:00 +9°C° 0 mm 1 mps 646 mmHg 44%
    09:00 +11°C° 0 mm 1 mps 647 mmHg 39%
    10:00 +12°C° 0 mm 1 mps 647 mmHg 37%
    11:00 +12°C° 0 mm 2 mps 646 mmHg 34%
    12:00 +13°C° 0 mm 2 mps 646 mmHg 32%
    13:00 +13°C° 0 mm 2 mps 646 mmHg 32%
    14:00 +14°C° 0 mm 2 mps 646 mmHg 32%
    15:00 +13°C° 0 mm 3 mps 646 mmHg 32%
    16:00 +13°C° 0 mm 2 mps 645 mmHg 35%
    17:00 +10°C° 0 mm 2 mps 645 mmHg 38%
    18:00 +10°C° 0 mm 1 mps 645 mmHg 41%
    19:00 +10°C° 0 mm 1 mps 645 mmHg 42%
    20:00 +9°C° 0 mm 1 mps 645 mmHg 42%
    21:00 +9°C° 0 mm 1 mps 645 mmHg 42%
    22:00 +9°C° 0 mm 1 mps 645 mmHg 43%
    23:00 +8°C° 0 mm 1 mps 644 mmHg 44%

    21 November, Wednesday

    Time Temperature Precipitation Wind Pressure Humidity
    00:00 +8°C° 0 mm 1 mps 644 mmHg 44%
    01:00 +8°C° 0 mm 1 mps 644 mmHg 45%
    02:00 +7°C° 0 mm 1 mps 644 mmHg 46%
    03:00 +7°C° 0 mm 1 mps 643 mmHg 47%
    04:00 +7°C° 0 mm 1 mps 643 mmHg 49%
    05:00 +7°C° 0 mm 1 mps 643 mmHg 50%
    06:00 +6°C° 0 mm 1 mps 643 mmHg 51%
    07:00 +8°C° 0 mm 1 mps 644 mmHg 47%
    08:00 +9°C° 0 mm 1 mps 644 mmHg 43%
    09:00 +10°C° 0 mm 2 mps 645 mmHg 40%
    10:00 +12°C° 0 mm 2 mps 645 mmHg 37%
    11:00 +12°C° 0 mm 3 mps 645 mmHg 35%
    12:00 +12°C° 0 mm 3 mps 644 mmHg 33%
    13:00 +12°C° 0 mm 3 mps 644 mmHg 33%
    14:00 +13°C° 0 mm 3 mps 644 mmHg 32%
    15:00 +13°C° 0 mm 3 mps 643 mmHg 32%
    16:00 +12°C° 0 mm 2 mps 643 mmHg 35%
    17:00 +10°C° 0 mm 2 mps 643 mmHg 39%
    18:00 +10°C° 0 mm 1 mps 643 mmHg 42%
    19:00 +10°C° 0 mm 1 mps 643 mmHg 42%
    20:00 +10°C° 0 mm 1 mps 643 mmHg 42%
    21:00 +9°C° 0 mm 1 mps 643 mmHg 43%
    22:00 +9°C° 0 mm 1 mps 643 mmHg 43%
    23:00 +9°C° 0 mm 1 mps 642 mmHg 43%

    22 November, Thursday

    Time Temperature Precipitation Wind Pressure Humidity
    00:00 +8°C° 0 mm 1 mps 642 mmHg 43%
    01:00 +8°C° 0 mm 1 mps 642 mmHg 45%
    02:00 +7°C° 0 mm 2 mps 642 mmHg 46%
    03:00 +7°C° 0 mm 2 mps 642 mmHg 47%
    04:00 +7°C° 0 mm 2 mps 642 mmHg 49%
    05:00 +7°C° 0 mm 2 mps 642 mmHg 51%
    06:00 +8°C° 0 mm 1 mps 642 mmHg 53%
    07:00 +8°C° 0 mm 2 mps 642 mmHg 51%
    08:00 +8°C° 0 mm 2 mps 642 mmHg 49%
    09:00 +9°C° 0 mm 2 mps 643 mmHg 47%
    10:00 +10°C° 0 mm 2 mps 643 mmHg 46%
    11:00 +11°C° 0 mm 3 mps 642 mmHg 44%
    12:00 +11°C° 0 mm 3 mps 642 mmHg 42%
    13:00 +11°C° 0 mm 3 mps 642 mmHg 43%
    14:00 +11°C° 0 mm 3 mps 642 mmHg 44%
    15:00 +11°C° 0 mm 3 mps 642 mmHg 44%
    16:00 +10°C° 0 mm 3 mps 642 mmHg 47%
    17:00 +10°C° 0 mm 2 mps 642 mmHg 50%
    18:00 +9°C° 0 mm 2 mps 642 mmHg 53%
    19:00 +8°C° 0 mm 2 mps 642 mmHg 55%
    20:00 +8°C° 0 mm 2 mps 642 mmHg 57%
    21:00 +7°C° 0 mm 2 mps 642 mmHg 59%
    22:00 +8°C° 0 mm 1 mps 642 mmHg 62%
    23:00 +8°C° 0 mm 1 mps 642 mmHg 64%

    23 November, Friday

    Time Temperature Precipitation Wind Pressure Humidity
    00:00 +7°C° 0 mm 1 mps 642 mmHg 66%
    01:00 +7°C° 0 mm 1 mps 641 mmHg 68%
    02:00 +7°C° 0 mm 1 mps 641 mmHg 71%
    03:00 +7°C° 0 mm 1 mps 641 mmHg 73%
    04:00 +6°C° 0 mm 1 mps 641 mmHg 75%
    05:00 +6°C° 0 mm 1 mps 641 mmHg 77%
    06:00 +6°C° 0 mm 1 mps 641 mmHg 79%
    07:00 +7°C° 0 mm 1 mps 642 mmHg 75%
    08:00 +8°C° 0 mm 1 mps 643 mmHg 72%
    09:00 +9°C° 0 mm 1 mps 643 mmHg 68%
    10:00 +8°C° 0.1 mm 2 mps 643 mmHg 65%
    11:00 +9°C° 0.1 mm 2 mps 643 mmHg 63%
    12:00 +10°C° 0.1 mm 2 mps 643 mmHg 61%
    13:00 +10°C° 0.3 mm 2 mps 643 mmHg 62%
    14:00 +9°C° 0.3 mm 2 mps 643 mmHg 63%
    15:00 +9°C° 0.3 mm 2 mps 643 mmHg 64%
    16:00 +10°C° 0.1 mm 1 mps 643 mmHg 68%
    17:00 +9°C° 0.1 mm 1 mps 643 mmHg 71%
    18:00 +9°C° 0.1 mm 1 mps 644 mmHg 74%
    19:00 +8°C° 0.1 mm 1 mps 644 mmHg 75%
    20:00 +8°C° 0.1 mm 1 mps 644 mmHg 76%
    21:00 +8°C° 0.1 mm 1 mps 644 mmHg 77%
    22:00 +8°C° 0 mm 1 mps 645 mmHg 78%
    23:00 +7°C° 0 mm 1 mps 645 mmHg 79%
    Show more